Regional Weather Roundup
Issued by NWS

Home | Current Version | Previous Version | Text Only | Print | Product List | Glossary On
Versions: 1 2 3 4 5 6 7 8 9 10 11 12 13 14 15 16 17 18 19 20 21 22 23 24 25 26 27 28 29 30 31 32 33 34 35 36 37 38 39 40 41 42 43 44 45 46 47 48 49 50
000
ASUS44 KFWD 300315
RWRTX
NORTH TEXAS HOURLY WEATHER ROUNDUP
NATIONAL WEATHER SERVICE FORT WORTH TX
1000 PM CDT FRI MAY 29 2015

NOTE: "FAIR" INDICATES FEW OR NO CLOUDS BELOW 12,000 FEET WITH NO
SIGNIFICANT WEATHER AND/OR OBSTRUCTIONS TO VISIBILITY.

TXZ118-119-300400-
DALLAS/FORT WORTH METROPLEX

CITY           SKY/WX    TMP DP  RH WIND       PRES   REMARKS
DFW AIRPORT    MOCLDY    73  67  81 CALM      29.95R
DALLAS LOVE    MOCLDY    74  67  78 E3        29.96R
FTW MEACHAM    CLOUDY    76  68  76 E5        29.95R
DAL-EXECUTIVE  MOCLDY    70  68  93 E3        29.96R
FTW-ALLIANCE   PTCLDY    71  68  90 E3        29.96R
FTW-NAS-JRB    MOCLDY    76  69  79 E5        29.96R
FTW-SPINKS     CLEAR     74  68  83 E3        29.97R
ARLINGTON      PTCLDY    74  67  78 CALM      29.96R
GRAND PRAIRIE  PTCLDY    74  69  85 CALM      29.98R
ADDISON        MOCLDY    77  66  69 CALM      29.97
MESQUITE       PTCLDY    72  70  93 CALM      29.97R
LANCASTER      PTCLDY    72  67  85 CALM      29.97S
$$

TXZ091>094-102>105-117-120-121-131>134-300400-
NORTH CENTRAL TEXAS

CITY           SKY/WX    TMP DP  RH WIND       PRES   REMARKS
SHRMAN/DENISON PTCLDY    72  69  91 CALM      29.98R
GAINESVILLE    PTCLDY    70  67  90 CALM      29.99R
BOWIE          CLEAR     69  69 100 CALM      29.97S
BRIDGEPORT     CLEAR     71  71 100 CALM      29.98R
DECATUR        CLEAR     69  66  90 E6        29.98R
DENTON         PTCLDY    73  69  87 CALM      29.96R
MCKINNEY       PTCLDY    71  68  90 CALM      29.97R
GREENVILLE     MOCLDY    72  64  78 CALM      29.98R
ROCKWALL       PTCLDY    72  68  88 E3        29.96R
TERRELL        MOCLDY    74  68  81 CALM      29.98R
WAXAHACHIE     PTCLDY    72  71  95 NE3       29.97S
CLEBURNE       CLEAR     73  73 100 E7        29.97S
GRANBURY       CLEAR     77  67  72 E5        29.96R
$$

TXZ083>090-098>101-113>116-127>130-139>142-154-155-300400-
WESTERN NORTH TEXAS

CITY           SKY/WX    TMP DP  RH WIND       PRES   REMARKS
WICHITA FALLS  CLEAR     72  66  81 SE7       29.96R
WF-KICKAPOO    CLEAR     75  67  76 E6        29.97R
VERNON         CLEAR     75  62  64 SE3       29.98R
ABILENE        CLOUDY    77  70  79 E8        29.96R
ABILENE-DYESS  MOCLDY    77  67  70 SE8       29.95R
BRECKENRIDGE   CLEAR     77  68  73 SE7       29.95R
GRAHAM         CLEAR     72  69  90 E5        29.95R
MINERAL WELLS  MOCLDY    75  68  78 E7        29.95R
STEPHENVILLE   CLEAR     75  66  73 E6        29.99R
COMANCHE       PTCLDY    74  69  84 SE5       29.96R
BROWNWOOD      MOCLDY    73  68  83 SE7       29.96R
COLEMAN        CLEAR     74  69  83 SE6       29.96S
BRADY          CLEAR     77  68  73 SE7       29.98R
$$

TXZ143>147-156>162-174-175-300400-
CENTRAL TEXAS

CITY           SKY/WX    TMP DP  RH WIND       PRES   REMARKS
WACO           MOCLDY    77  68  73 SE6       29.95R
WACO-TSTC      CLEAR     75  72  88 CALM      29.95R
WACO-MCGREGOR  CLEAR     77  66  69 SE7       29.96R
HILLSBORO      CLEAR     74  67  78 E8        29.96R
CORSICANA      PTCLDY    75  71  87 E5        29.97R
MEXIA          CLEAR     74  70  87 SE3       29.96R
HEARNE         CLEAR     76  72  87 CALM      29.96R
CAMERON        CLEAR     78  71  80 S3        29.95R
TEMPLE         CLEAR     75  66  73 SE8       29.95R
KILLEEN        CLEAR     74  70  85 S5        29.96R
KILLEEN-SKYLRK CLEAR     79  66  65 S8        29.96R
FORT HOOD      CLEAR     78  68  72 SE7       29.95R
GATESVILLE     CLEAR     77  70  78 SE5       29.97S
HAMILTON       CLEAR     77  66  68 SE6       29.98R
LAMPASAS       MOCLDY    78  71  79 CALM      29.97R
$$

TXZ095>097-106>112-122>126-135>138-148>153-164>167-300400-
EAST TEXAS

CITY           SKY/WX    TMP DP  RH WIND       PRES   REMARKS
PARIS          PTCLDY    70  64  83 W6        29.96R
SULPHUR SPRNGS PTCLDY    72  70  94 SW6       29.99R
MOUNT PLEASANT MOCLDY    74  66  76 SW6       29.98R
GILMER         PTCLDY   N/A N/A N/A CALM      29.97R
MINEOLA        PTCLDY    73  70  88 CALM      29.98R
TYLER          CLEAR     74  68  81 SW3       29.97R
LONGVIEW       PTCLDY    76  69  79 SW6       29.96R
MARSHALL       PTCLDY    76  70  80 CALM      29.98R
ATHENS         PTCLDY    72  70  94 CALM      29.96R
PALESTINE      CLEAR     73  71  95 CALM      29.98R
JACKSONVILLE   PTCLDY    76  68  75 CALM      30.00R
NACOGDOCHES    CLEAR     72  70  94 CALM      29.97R
LUFKIN         CLEAR     79  71  76 S6        29.97R
$$

SUPPLEMENTAL OBSERVATIONS (CENTRAL)

CITY           SKY/WX    TMP DP  RH WIND       PRES   REMARKS
LAKE TEXOMA      N/A     72  66  83 SW6         N/A
CADDO GRASSLND   N/A     72  68  88 W1          N/A
PAT MAYSE LAKE   N/A     70  68  94 SW7         N/A
GREENVILLE       N/A     72  66  83 SW3         N/A
LAKE LIMESTONE   N/A     75  70  83 E1          N/A
MCGREGOR         N/A     79  68  69 SE8         N/A
TEMPLE           N/A     77  70  78 SE5         N/A
$$

SUPPLEMENTAL OBSERVATIONS (WEST)

CITY           SKY/WX    TMP DP  RH WIND       PRES   REMARKS
MILLERS CREEK    N/A     75  70  83 E5          N/A
POSSUM KINGDOM   N/A     73  66  78 E5          N/A
LBJ GRASSLAND    N/A     72  68  88 E3          N/A
GRANBURY         N/A     75  66  73 E5          N/A
COMANCHE         N/A     73  64  73 S3          N/A
HAMBY            N/A     75  68  78 SE6         N/A
IVIE RESERVOIR   N/A     77  68  73 SE6         N/A
COLORADO BEND    N/A     75  66  73 SW5         N/A
$$

SUPPLEMENTAL OBSERVATIONS (EAST)

CITY           SKY/WX    TMP DP  RH WIND       PRES   REMARKS
CLARKSVILLE      N/A     70  68  94 CALM        N/A
CADDO LAKE       N/A     70  66  88 CALM        N/A
GILMER           N/A     73  68  83 SW3         N/A
HENDERSON        N/A     73  68  83 CALM        N/A
LUFKIN           N/A     75  70  83 MISG        N/A
N SABINE NF      N/A     75  72  88 MISG        N/A
S SABINE NF      N/A     73  68  83 CALM        N/A
$$

SUPPLEMENTAL OBSERVATIONS ARE A COLLECTION OF AUTOMATED INSTRUMENTS
THAT ARE MAINTAINED BY A VARIETY OF FEDERAL AND STATE AGENCIES.
CERTAIN ELEMENTS...SUCH AS HUMIDITY VALUES AND SUSTAINED WIND
SPEEDS...MAY BE APPROXIMATED.




USA.gov is the U.S. government's official web portal to all federal, state and local government web resources and services.